Tracking 22438 objects as of 24-Feb-2021
HD Live streaming from Space Station
objects crossing your sky now

COSMOS 1375 DEB

Track COSMOS 1375 DEB now!
10-day predictions


NORAD ID: 17804
Int'l Code: 1982-055AW
Perigee: 907.8 km
Apogee: 918.9 km
Inclination: 65.8 °
Period: 103.1 minutes
Semi major axis: 7284 km
RCS: 0.0158 m2 (small)
Launch date: June 6, 1982
Source: Commonwealth of Independent States (former USSR) (CIS)
Launch site: PLESETSK MISSILE AND SPACE COMPLEX (PKMTR)

Note: This is SATELLITE DEBRIS
aabbcc
Your satellite tracking list
Your tracking list is empty




NASA's NSSDC Master Catalog

Two Line Element Set (TLE):
1 17804U 82055AW  21055.16062826  .00000443  00000-0  38207-3 0  9998
2 17804  65.8194 310.0529 0007635 125.5633 311.8364 13.96432170786341
Source of the keplerian elements: AFSPC